ARABSAT-6A

Last updated on Wed Sep 09 2026 00:03:02 GMT+0000 (Coordinated Universal Time)

1 44186U 19021A 26251.52239562 .00000000 00000+0 00000+0 0 9994 2 44186 0.0173 9.7564 0005989 243.4877 312.9073 1.00268616 26994
UTC large
Height (km)
Speed (km/s)
/
Latitude / Longitude
Inclination (degrees)
Orbital Period (minutes)
Azimuth
Elevation
Range (km)
Doppler Factor

Next 0 passes for location: London (51.5072 / 0.1276)

No passes found over London.
ARABSAT-6A